CW1852 Weather Reports


time (UTC)temp
F
wind
direction
speed
knots
gust
knots
rain 1hr
in
rain 24hr
in
rain mn
in
humidity
%
barometer
mb
20260505031224 52 209 2.6 10.4 0.00 0.00 0.00 76 1007.0
20260505030203 52 208 4.3 10.4 0.00 0.00 0.00 76 1006.9
20260505025203 52 248 4.3 10.4 0.00 0.00 0.00 76 1007.0
20260505024202 52 236 3.5 9.6 0.00 0.00 0.00 76 1006.9
20260505023225 52 221 4.3 11.3 0.00 0.00 0.00 76 1006.8
20260505022203 51 252 5.2 11.3 0.00 0.00 0.00 77 1006.7
20260505021202 51 242 5.2 13.0 0.00 0.00 0.00 78 1006.7
20260505020245 51 240 4.3 12.2 0.00 0.00 0.00 79 1006.7
20260505015203 50 230 4.3 13.0 0.00 0.00 0.00 79 1006.6
20260505014202 51 237 4.3 12.2 0.00 0.00 0.00 79 1006.6
20260505013203 50 238 5.2 13.0 0.00 0.00 0.00 80 1006.4
20260505012203 50 231 3.5 12.2 0.00 0.00 0.00 79 1006.3
20260505011203 50 239 6.1 11.3 0.00 0.00 0.00 80 1006.2
20260505010203 50 244 7.0 14.8 0.00 0.00 0.00 79 1006.1
20260505005224 50 241 4.3 13.0 0.00 0.00 0.00 79 1006.1
20260505004225 50 238 5.2 10.4 0.00 0.00 0.00 78 1005.9
20260505003203 50 238 4.3 8.7 0.00 0.00 0.00 78 1005.7
20260505002203 49 232 3.5 7.8 0.00 0.00 0.00 79 1005.7
20260505001203 49 256 2.6 7.8 0.00 0.00 0.00 78 1005.6
20260505000204 50 211 1.7 9.6 0.00 0.00 0.00 77 1005.6
20260504235204 50 268 1.7 10.4 0.00 0.00 0.00 76 1005.5
20260504234203 50 193 2.6 7.0 0.00 0.00 0.00 75 1005.2
20260504233203 51 182 1.7 6.1 0.00 0.00 0.00 74 1005.2
20260504232203 51 203 1.7 6.1 0.00 0.00 0.00 72 1005.0
20260504231203 52 194 3.5 7.0 0.00 0.00 0.00 72 1005.0
20260504230202 52 191 2.6 5.2 0.00 0.00 0.00 70 1004.9
20260504225203 53 196 2.6 5.2 0.00 0.00 0.00 69 1004.7
20260504224202 54 193 0.9 5.2 0.00 0.00 0.00 67 1004.7
20260504223203 55 236 1.7 5.2 0.00 0.00 0.00 66 1004.7
20260504222203 55 199 1.7 7.8 0.00 0.00 0.00 64 1004.6
20260504221223 57 192 3.5 7.0 0.00 0.00 0.00 61 1004.6
20260504220204 58 266 2.6 5.2 0.00 0.00 0.00 60 1004.7
20260504215224 59 188 2.6 7.0 0.00 0.00 0.00 58 1004.6
20260504214203 59 177 1.7 8.7 0.00 0.00 0.00 60 1004.5
20260504212223 62 171 1.7 5.2 0.00 0.00 0.00 61 1004.5
20260504211203 61 198 1.7 4.3 0.00 0.00 0.00 61 1004.5
20260504210204 61 209 2.6 4.3 0.00 0.00 0.00 58 1004.5
20260504205202 62 203 1.7 3.5 0.00 0.00 0.00 59 1004.5
20260504204224 62 202 1.7 4.3 0.00 0.00 0.00 59 1004.4
20260504203224 61 198 1.7 6.1 0.00 0.00 0.00 59 1004.3
20260504202202 61 193 1.7 5.2 0.00 0.00 0.00 60 1004.5
20260504201203 61 193 1.7 6.1 0.00 0.00 0.00 60 1004.5
20260504200202 60 209 2.6 6.1 0.00 0.00 0.00 60 1004.4
20260504195203 60 203 2.6 7.0 0.00 0.00 0.00 60 1004.4
20260504194203 60 184 2.6 7.8 0.00 0.00 0.00 61 1004.5
20260504193203 59 218 2.6 8.7 0.00 0.00 0.00 61 1004.7
20260504192203 59 221 3.5 7.0 0.00 0.00 0.00 63 1004.7
20260504191202 55 251 4.3 9.6 0.00 0.00 0.00 69 1004.9
20260504190224 54 235 3.5 8.7 0.00 0.00 0.00 68 1004.9
20260504185202 55 224 4.3 12.2 0.00 0.00 0.00 66 1004.8
20260504184203 56 210 1.7 11.3 0.00 0.00 0.00 63 1004.7
20260504183224 57 261 3.5 10.4 0.00 0.00 0.00 63 1004.8
20260504182202 56 253 4.3 7.8 0.00 0.00 0.00 65 1004.7
20260504181203 54 229 3.5 9.6 0.00 0.00 0.00 69 1004.9
20260504180202 52 239 3.5 8.7 0.00 0.00 0.00 70 1005.0
20260504175203 53 219 2.6 11.3 0.00 0.01 0.00 69 1004.7
20260504174203 55 218 4.3 12.2 0.00 0.01 0.00 65 1004.7
20260504173202 58 205 7.0 13.0 0.00 0.01 0.00 59 1004.6
20260504172203 61 205 6.1 13.9 0.00 0.01 0.00 57 1004.6
20260504171226 61 216 4.3 13.9 0.00 0.01 0.00 54 1004.5
20260504170202 60 230 5.2 11.3 0.00 0.01 0.00 56 1004.5
20260504160203 56 212 7.0 15.6 0.00 0.01 0.00 63 1005.1
20260504150203 58 216 3.5 7.8 0.00 0.04 0.00 60 1005.6
20260504141203 54 200 4.3 9.6 0.00 0.05 0.00 68 1006.5
20260504140203 54 195 3.5 7.8 0.00 0.05 0.00 71 1006.6
20260504130225 51 243 3.5 7.8 0.00 0.05 0.00 68 1007.2
20260504120203 49 237 2.6 9.6 0.00 0.09 0.00 69 1007.2
20260504110203 43 247 1.7 6.1 0.00 0.13 0.00 77 1007.3
20260504100203 39 257 0.9 2.6 0.00 0.13 0.00 81 1007.2
20260504081202 38 238 2.6 5.2 0.00 0.16 0.00 83 1006.8
20260504080203 38 254 1.7 6.1 0.00 0.17 0.00 81 1006.9
20260504070204 37 245 2.6 5.2 0.00 0.21 0.00 87 1006.6
20260504060202 35 260 0.9 2.6 0.00 0.22 0.00 90 1006.6
20260504050204 36 249 0.9 2.6 0.00 0.22 0.00 85 1006.4
20260504045204 37 249 0.9 2.6 0.00 0.22 0.00 83 1006.3
20260504044203 37 249 0.9 3.5 0.00 0.22 0.00 81 1006.3
20260504043203 38 250 1.7 5.2 0.00 0.22 0.00 79 1006.4
20260504042203 38 250 0.9 2.6 0.00 0.22 0.00 77 1006.5
20260504041224 39 250 1.7 5.2 0.00 0.22 0.00 75 1006.3
20260504040203 40 249 1.7 6.1 0.00 0.22 0.00 73 1006.3
20260504035202 41 251 1.7 6.1 0.00 0.22 0.22 71 1006.2
20260504034203 42 258 2.6 7.0 0.00 0.22 0.22 70 1006.1
20260504033224 41 247 2.6 7.0 0.00 0.22 0.22 70 1006.0
20260504032202 42 289 1.7 8.7 0.00 0.22 0.22 70 1005.9